Darwin, CA

1:17 PM PST on February 12, 2016 (GMT -0800)
China Lake NAWS

Weather History for KNID - September, 2013

Change the Weather History Date:

Wednesday, September 4, 2013

  Actual Average Record
Temperature  
Mean Temperature 92 °F -  
Max Temperature 108 °F 94 °F 108 °F (2013)
Min Temperature 75 °F 66 °F 62 °F (2015)
Cooling Degree Days 26    
Growing Degree Days 42 (Base 50)    
Moisture  
Dew Point 50 °F    
Average Humidity 26    
Maximum Humidity 43    
Minimum Humidity 11    
Precipitation  
Precipitation 0.00 in - - ()
Sea Level Pressure  
Sea Level Pressure 29.87 in    
Wind  
Wind Speed 8 mph (SSE)    
Max Wind Speed 21 mph    
Max Gust Speed 32 mph    
Visibility 10 miles    
Events      
Averages and records for this station are not official NWS values.
T = Trace of Precipitation, MM = Missing Value Source: NWS Daily Summary

Daily Weather History Graph

Daily Weather History Graph

Search for Another Location

Airport or City:

Trip Planner

Search our weather history database for the weather conditions in past years. The results will help you decide how hot, cold, wet, or windy it might be!

Date:

Astronomy

Sep. 04, 2013 Rise Set
Actual Time 6:25 AM PDT 7:13 PM PDT
Civil Twilight 5:59 AM PDT 7:39 PM PDT
Nautical Twilight 5:28 AM PDT 8:09 PM PDT
Astronomical Twilight 4:57 AM PDT 8:41 PM PDT
Moon 5:41 AM PDT (9/4) 6:36 PM PDT (9/4)
Length of Visible Light 13h 39m
Length of Day
12h 47m
Waning Crescent, 1% of the Moon is Illuminated
Sep 4
Waning Crescent
Sep 5
New
Sep 12
First Quarter
Sep 19
Full
Sep 26
Last Quarter

Hourly Weather History & Observations

Time (PDT) Temp. Heat Index Dew Point Humidity Pressure Visibility Wind Dir Wind Speed Gust Speed Precip Events Conditions
12:56 AM 84.0 °F 82.9 °F 55.0 °F 37% 29.87 in 10.0 mi South 10.4 mph - N/A   Clear
1:56 AM 82.9 °F 81.9 °F 54.0 °F 37% 29.87 in 10.0 mi SSW 12.7 mph - N/A   Clear
2:56 AM 82.9 °F 81.8 °F 53.1 °F 36% 29.87 in 10.0 mi South 6.9 mph - N/A   Clear
3:56 AM 78.1 °F - 52.0 °F 40% 29.88 in 10.0 mi South 5.8 mph - N/A   Clear
4:56 AM 79.0 °F - 52.0 °F 39% 29.89 in 10.0 mi SSE 6.9 mph - N/A   Clear
5:56 AM 75.9 °F - 52.0 °F 43% 29.90 in 10.0 mi South 5.8 mph - N/A   Clear
6:56 AM 75.0 °F - 51.1 °F 43% 29.92 in 10.0 mi Calm Calm - N/A   Clear
7:56 AM 82.0 °F - 52.0 °F 35% 29.94 in 10.0 mi Calm Calm - N/A   Clear
8:56 AM 88.0 °F 85.7 °F 53.1 °F 30% 29.94 in 10.0 mi East 3.5 mph - N/A   Clear
9:56 AM 93.9 °F - 52.0 °F 24% 29.94 in 10.0 mi East 4.6 mph - N/A   Clear
10:56 AM 99.0 °F - 52.0 °F 21% 29.92 in 10.0 mi South 9.2 mph - N/A   Clear
11:56 AM 102.9 °F - 48.9 °F 16% 29.90 in 10.0 mi Variable 5.8 mph 16.1 mph N/A   Clear
12:56 PM 104.0 °F - 48.0 °F 15% 29.88 in 10.0 mi SE 3.5 mph - N/A   Clear
1:56 PM 106.0 °F - 42.1 °F 11% 29.86 in 10.0 mi SE 8.1 mph 19.6 mph N/A   Partly Cloudy
2:56 PM 108.0 °F - 43.0 °F 11% 29.83 in 10.0 mi SSE 12.7 mph 18.4 mph N/A   Partly Cloudy
3:56 PM 108.0 °F - 42.1 °F 11% 29.81 in 10.0 mi SSE 11.5 mph 20.7 mph N/A   Partly Cloudy
4:56 PM 105.1 °F - 43.0 °F 12% 29.80 in 10.0 mi SE 11.5 mph - N/A   Partly Cloudy
5:56 PM 102.9 °F 101.4 °F 54.0 °F 20% 29.80 in 10.0 mi SE 20.7 mph 32.2 mph N/A   Mostly Cloudy
6:56 PM 100.0 °F - 48.9 °F 18% 29.81 in 10.0 mi SSE 15.0 mph - N/A   Scattered Clouds
7:56 PM 97.0 °F - 51.1 °F 21% 29.83 in 10.0 mi SW 11.5 mph - N/A   Partly Cloudy
8:56 PM 93.0 °F - 51.1 °F 24% 29.86 in 10.0 mi SSW 5.8 mph - N/A   Clear
9:56 PM 90.0 °F - 51.1 °F 26% 29.86 in 10.0 mi SSW 3.5 mph - N/A   Clear
10:56 PM 89.1 °F - 51.1 °F 27% 29.87 in 10.0 mi SSE 4.6 mph - N/A   Clear
11:56 PM 86.0 °F - 51.1 °F 30% 29.87 in 10.0 mi West 3.5 mph - N/A   Unknown